Home > Weather > Antofagasta > Past weeks

Flag for Chile Past Weather in Antofagasta, Chile — Yesterday and Last 2 Weeks

Now
55 °F

Overcast.


Feels Like: 55 °F
Forecast: 67 / 78 °F
Wind: 5 mph from Northwest

Location: Antofagasta Airport

Current Time: Jun 30, 2016 at 4:47:23 AM

Latest Report: Jun 30, 2016 at 4:00 AM


Visibility: N/A

Pressure: 29.95 "Hg

Humidity: 88%

Dew Point: 52 °F

Location of AntofagastaLocation

Past Weather in Antofagasta — Graph

°F

Antofagasta Temperature Yesterday

Maximum temperature yesterday: 61 °F (at 1:00 PM)
Minimum temperature yesterday: 55 °F (at 12:00 AM)
Average temperature yesterday: 57 °F

High & Low Weather Summary for the Past Weeks

 TemperatureHumidityPressure
High64 °F (Jun 17, 1:00 PM)94% (Jun 26, 6:00 AM)30.12 "Hg (Jun 26, 6:00 AM)
Low50 °F (Jun 26, 5:00 AM)39% (Jun 26, 5:00 PM)29.89 "Hg (Jun 29, 4:00 AM)
Average57 °F76%30.02 "Hg
* Reported Jun 15 3:00 AM — Jun 30 3:00 AM, Antofagasta, Weather by CustomWeather, © 2016

Note: Actual official high and low records may vary slightly from our data, if they occured in-between our weather recording intervals... More about our weather records

Advertising

Antofagasta Weather History for the Previous 24 Hours

Scroll right to see more
 ConditionsComfort  
Time TempWeatherWind HumidityBarometerVisibility
3:00 AM
Thu, Jun 30
55 °FDrizzle. Overcast.5 mph88%29.92 "HgN/A
2:00 AM57 °FOvercast.5 mph82%29.95 "HgN/A
1:00 AM57 °FDrizzle. Overcast.7 mph82%29.98 "HgN/A
12:00 AM57 °FOvercast.7 mph82%29.98 "HgN/A
11:00 PM
Wed, Jun 29
57 °FDrizzle. Overcast.10 mph82%29.98 "HgN/A
10:00 PM57 °FDrizzle. Low clouds.9 mph82%29.98 "HgN/A
9:00 PM57 °FDrizzle. Low clouds.10 mph82%29.95 "Hg6 mi
8:00 PM57 °FPartly cloudy.9 mph82%29.95 "HgN/A
7:00 PM57 °FPassing clouds.8 mph82%29.92 "HgN/A
6:00 PM57 °FPassing clouds.8 mph82%29.92 "Hg6 mi
5:00 PM59 °FPartly sunny.9 mph82%29.92 "HgN/A
4:00 PM59 °FPassing clouds.8 mph77%29.89 "HgN/A
3:00 PM59 °FSunny.7 mph77%29.92 "Hg10 mi
2:00 PM59 °FPassing clouds.8 mph77%29.95 "HgN/A
1:00 PM61 °FScattered clouds.6 mph77%29.95 "HgN/A
12:00 PM57 °FScattered clouds.7 mph82%30.01 "HgN/A
11:00 AM57 °FBroken clouds.10 mph82%30.01 "HgN/A
10:00 AM57 °FBroken clouds.3 mph82%29.98 "HgN/A
9:00 AM55 °FPartly sunny.8 mph88%29.95 "HgN/A
8:00 AM55 °FPartly sunny.12 mph88%29.92 "HgN/A
7:00 AM55 °FPartly sunny.10 mph88%29.92 "HgN/A
6:00 AM55 °FPassing clouds.16 mph88%29.89 "HgN/A
5:00 AM55 °FPassing clouds.8 mph88%29.89 "HgN/A
4:00 AM55 °FPassing clouds.12 mph88%29.89 "HgN/A
Weather by CustomWeather, © 2016

See weather overviewHow to use our weather pages